Regional Weather Roundup
Issued by NWS

Home | Current Version | Previous Version | Text Only | Print | Product List | Glossary On
Versions: 1 2 3 4 5 6 7 8 9 10 11 12 13 14 15 16 17 18 19 20 21 22 23 24 25 26 27 28 29 30 31 32 33 34 35 36 37 38 39 40 41 42 43 44 45 46 47 48 49 50
000
ASUS44 KBMX 220810
RWRAL

ALABAMA REGIONAL WEATHER ROUNDUP
NATIONAL WEATHER SERVICE BIRMINGHAM AL
200 AM CST MON DEC 22 2014

NOTE: "FAIR" INDICATES FEW OR NO CLOUDS BELOW 12,000 FEET
WITH NO SIGNIFICANT WEATHER AND/OR OBSTRUCTIONS TO VISIBILITY.

THE REMARK "TC" DENOTES TEMPERATURE IN DEGREES CELSIUS.

ALZ001>011-014-016>018-020-220900-
NORTH ALABAMA

CITY           SKY/WX    TMP DP  RH WIND       PRES   REMARKS
MUSCLE SHOALS  CLOUDY    49  45  86 E5        29.98F
HUNTSVILLE     CLOUDY    51  45  79 SE8       29.98F
DECATUR        CLOUDY    50  45  83 SE9       29.98F
HALEYVILLE     CLOUDY    48  48 100 SE6       29.98F FOG
GADSDEN        CLOUDY    48  43  81 NE7       30.01F
$$

ALZ012-013-022-023-030>036-040>044-220900-
WEST CENTRAL ALABAMA

CITY           SKY/WX    TMP DP  RH WIND       PRES   REMARKS
TUSCALOOSA     CLOUDY    53  49  86 SE8       29.96F
$$

ALZ015-024>027-033>036-040>044-220900-
CENTRAL ALABAMA

CITY           SKY/WX    TMP DP  RH WIND       PRES   REMARKS
BIRMINGHAM     CLOUDY    50  46  86 SE7       30.01F
MONTGOMERY     CLOUDY    52  49  89 E8        29.99F
SHELBY CO ARPT CLOUDY    50  49  96 E5        29.99F FOG
MAXWELL AFB    CLOUDY    51  50  96 E6        29.99F
GREENVILLE     CLOUDY    52  51  97 E6        29.96F FOG
$$

ALZ019-021-028-029-037-038-045>048-220900-
EAST CENTRAL ALABAMA

CITY           SKY/WX    TMP DP  RH WIND       PRES   REMARKS
ANNISTON       CLOUDY    49  46  90 E7        30.01F FOG
ALEXANDER CITY CLOUDY    52  48  86 E5        30.01S FOG
AUBURN         CLOUDY    46  45  93 E8        30.03F
$$

ALZ051>064-220900-
SOUTHWEST ALABAMA

CITY           SKY/WX    TMP DP  RH WIND       PRES   REMARKS
MOBILE         CLOUDY    54  54 100 E8        29.94F FOG
BROOKLEY FIELD CLOUDY    57  55  93 E8        29.95F
EVERGREEN      FOG       54  53  97 SE3       29.97F VSB 1
$$

ALZ049-050-065>069-220900-
SOUTHEAST ALABAMA

CITY           SKY/WX    TMP DP  RH WIND       PRES   REMARKS
DOTHAN         FOG       51  51 100 NE7       30.01F VSB 3/4
OZARK          FOG       52  51  96 E5        29.99S VSB 1
TROY           CLOUDY    51  50  96 E5        29.99F FOG
EUFAULA        CLOUDY    50  48  93 E6        30.00F FOG
$$



USA.gov is the U.S. government's official web portal to all federal, state and local government web resources and services.